[[{"header":{"parameterUnit":"m.s-1","parameterCategory":1,"la1":30.2991,"la2":30.254,"lo1":-89.0895,"lo2":-89.0444,"dy":0.0017,"dx":0.0017,"nx":28,"ny":28,"refTime":"2025-09-17T09:00:00:Z","depth":0,"parameterNumber":2,"parameterNumberName":"U-component_of_WINDS"},"data":[0,0,0,0,0,0,0,0,0,0,0,0,0,0,0,0,0,0,0,0,0,0,0,0,0,0,0,0,0,0,0,0,0,0,0,0,0,0,0,0,0,0,0,0,0,0,0,0,0,0,0,0,0,0,0,0,0,0,0.6337,0.6337,0,0.6373,0.6374,0.6374,0.6391,0.6391,0.6391,0.6391,0.6425,0.6426,0.6427,0,0,0,0,0,0,0,0,0,0,0,0,0,0.6278,0.6279,0.6337,0.6337,0.6337,0.6373,0.6374,0.6374,0.6391,0.6391,0.6391,0.6391,0.6425,0.6426,0.6427,0,0,0,0,0,0,0,0,0,0,0,0,0,0.6308,0.6279,0.6336,0.635,0.6352,0.6373,0.6374,0.6374,0.6391,0.6391,0.6391,0.6391,0.6424,0.6426,0.6427,0.6437,0,0,0.6432,0.6432,0,0,0,0,0,0,0,0,0.6306,0.631,0.6348,0.6349,0.6351,0.6377,0.6365,0.6395,0.6391,0.6376,0.6391,0.6391,0.6409,0.6412,0.6419,0.6438,0.644,0.6432,0.6433,0.6433,0.6434,0,0,0,0,0,0,0,0.6304,0.6308,0.6351,0.6348,0.635,0.6353,0.6358,0.6371,0.6392,0.6377,0.6379,0.6383,0.641,0.6417,0.642,0.644,0.6432,0.6433,0.6434,0.6434,0.6469,0.6469,0,0,0,0,0,0,0.63,0.6306,0.635,0.6352,0.6328,0.6354,0.6359,0.6369,0.6392,0.6396,0.6383,0.6383,0.6415,0.6418,0.6421,0.6433,0.6433,0.6434,0.6435,0.6468,0.6469,0.6469,0,0,0,0,0,0,0.6299,0.6304,0.6348,0.633,0.6336,0.6356,0.6366,0.637,0.6377,0.6396,0.64,0.6387,0.6415,0.6419,0.6433,0.6435,0.6435,0.6436,0.6468,0.6468,0.6469,0.6458,0,0,0,0,0,0,0.6297,0.6303,0.6308,0.633,0.6337,0.6361,0.6367,0.637,0.638,0.6381,0.6401,0.6404,0.6415,0.643,0.6434,0.6436,0.6437,0.6468,0.6468,0.6469,0.6458,0.6458,0.6457,0,0,0,0,0,0.6295,0.6303,0.6308,0.6313,0.6343,0.6361,0.6364,0.6378,0.638,0.6384,0.6396,0.6403,0.6434,0.6432,0.6436,0.6439,0.6468,0.6468,0.6469,0.6458,0.6458,0.6457,0,0,0,0,0,0,0.628,0.6306,0.6312,0.6328,0.6342,0.6363,0.6369,0.6377,0.639,0.6391,0.6406,0.641,0.6423,0.6432,0.6429,0.6449,0.6451,0.6452,0.6442,0.6442,0.6441,0.6439,0.6439,0,0,0,0,0,0.6278,0.6292,0.6313,0.6325,0.6332,0.6349,0.6357,0.6367,0.6382,0.6388,0.6401,0.6414,0.6427,0.6435,0.6447,0.6459,0.6463,0.6463,0.6463,0.6462,0.6463,0.6469,0.6469,0.6469,0.6469,0.6469,0,0,0.6275,0.6291,0.6299,0.6322,0.6334,0.6347,0.6354,0.6367,0.6376,0.6389,0.6403,0.6413,0.6429,0.6442,0.6448,0.645,0.6464,0.6462,0.6462,0.6463,0.647,0.647,0.647,0.6469,0.6469,0.6469,0,0,0.6276,0.629,0.6301,0.6313,0.6332,0.6343,0.6346,0.6366,0.6374,0.6388,0.6398,0.6409,0.643,0.6441,0.6449,0.6453,0.646,0.6457,0.6454,0.646,0.646,0.6461,0.6462,0.6462,0.6457,0.6457,0.6457,0,0.627,0.629,0.6305,0.6318,0.6328,0.6341,0.6351,0.6362,0.6383,0.6389,0.6391,0.6418,0.643,0.6445,0.6446,0.6452,0.6455,0.6455,0.6459,0.646,0.646,0.6461,0.6462,0.6457,0.6457,0.6457,0.6457,0,0.6281,0.6295,0.6301,0.6323,0.6333,0.6344,0.636,0.6369,0.6377,0.6387,0.6401,0.6416,0.6431,0.6436,0.6443,0.6452,0.6452,0.6457,0.646,0.6459,0.6461,0.6461,0.6456,0.6456,0.6457,0.6457,0,0,0.6275,0.6304,0.6306,0.6316,0.6337,0.6347,0.6358,0.6375,0.6381,0.6395,0.6404,0.6422,0.6426,0.6435,0.6444,0.6449,0.6452,0.6453,0.6454,0.6452,0.6461,0.6458,0.6459,0.6456,0.6456,0.6456,0.646,0,0.6278,0.6301,0.6315,0.6331,0.6343,0.6355,0.6365,0.6379,0.6389,0.64,0.641,0.6423,0.6427,0.6433,0.6439,0.645,0.6454,0.645,0.6464,0.6465,0.646,0.6459,0.6456,0.6459,0.6461,0.6461,0.6461,0,0.6286,0.6301,0.6319,0.6338,0.6344,0.6353,0.6368,0.6379,0.6394,0.6401,0.6411,0.642,0.6431,0.6433,0.6448,0.6446,0.6452,0.6458,0.6459,0.6461,0.6463,0.6461,0.646,0.6461,0.6462,0.6462,0.6462,0,0.6279,0.6303,0.6317,0.6325,0.6348,0.6354,0.6363,0.6378,0.6387,0.64,0.6405,0.6419,0.6427,0.6437,0.6449,0.6449,0.6463,0.6466,0.6468,0.6468,0.6471,0.647,0.6471,0.6475,0.6475,0.6475,0.6475,0,0.6283,0.6293,0.6314,0.6323,0.6334,0.6349,0.636,0.637,0.6383,0.6393,0.6404,0.6413,0.6428,0.6438,0.6448,0.6459,0.6462,0.6467,0.647,0.6466,0.6466,0.6471,0.6471,0.6475,0.6475,0.6475,0.6475,0,0.6277,0.6292,0.6308,0.6328,0.6333,0.6341,0.6358,0.6366,0.6376,0.6389,0.6392,0.6409,0.6421,0.6434,0.6451,0.6457,0.6468,0.6471,0.6463,0.6465,0.6466,0.6466,0.647,0.6471,0.6474,0.6474,0.6474,0,0.6278,0.6286,0.6308,0.6316,0.6325,0.6338,0.6347,0.6361,0.637,0.6387,0.6393,0.6406,0.6418,0.6438,0.645,0.6463,0.6467,0.6467,0.6469,0.6465,0.6467,0.6466,0.6467,0.6467,0.6467,0.6467,0.6466,0,0.6278,0.6285,0.6298,0.6314,0.6324,0.6337,0.635,0.6355,0.6372,0.6381,0.6395,0.6404,0.6421,0.6434,0.6449,0.6457,0.6464,0.6466,0.6467,0.6464,0.6459,0.6462,0.6462,0.6466,0.6466,0.6466,0.6466,0.6466,0.6276,0.6284,0.63,0.6314,0.6326,0.6337,0.6346,0.6358,0.637,0.6386,0.6393,0.6406,0.642,0.644,0.6449,0.6459,0.6461,0.6462,0.6463,0.6463,0.6462,0.6457,0.6461,0.6461,0.6461,0.6461,0.6461,0,0.6277,0.6288,0.6301,0.6319,0.633,0.6336,0.6351,0.6359,0.6371,0.6384,0.6395,0.641,0.6423,0.6436,0.645,0.6455,0.6458,0.6458,0.6458,0.6459,0.646,0.6458,0.6455,0.6455,0.6455,0.6455,0.6455,0.6455,0.6279,0.6292,0.6301,0.632,0.6331,0.6345,0.6352,0.6363,0.6373,0.639,0.6401,0.641,0.6422,0.6436,0.6448,0.6452,0.6456,0.6454,0.6459,0.6459,0.6459,0.646,0.6458,0.6455,0.6455,0.6458,0.6458,0.6458]},{"header":{"parameterUnit":"m.s-1","parameterCategory":1,"la1":30.2991,"la2":30.254,"lo1":-89.0895,"lo2":-89.0444,"dy":0.0017,"dx":0.0017,"nx":28,"ny":28,"refTime":"2025-09-17T09:00:00:Z","depth":0,"parameterNumber":3,"parameterNumberName":"V-component_of_WINDS"},"data":[0,0,0,0,0,0,0,0,0,0,0,0,0,0,0,0,0,0,0,0,0,0,0,0,0,0,0,0,0,0,0,0,0,0,0,0,0,0,0,0,0,0,0,0,0,0,0,0,0,0,0,0,0,0,0,0,0,0,1.7378,1.7378,0,1.739,1.739,1.739,1.736,1.7359,1.7358,1.7357,1.7369,1.737,1.7371,0,0,0,0,0,0,0,0,0,0,0,0,0,1.7327,1.7328,1.7378,1.7378,1.7378,1.739,1.739,1.739,1.736,1.7358,1.7357,1.7356,1.7368,1.737,1.7371,0,0,0,0,0,0,0,0,0,0,0,0,0,1.7345,1.7328,1.7378,1.7364,1.7363,1.739,1.739,1.739,1.736,1.7358,1.7357,1.7356,1.7368,1.7369,1.7371,1.7411,0,0,1.7377,1.7378,0,0,0,0,0,0,0,0,1.7344,1.7347,1.7366,1.7365,1.7364,1.7372,1.7376,1.7397,1.736,1.7361,1.7357,1.7355,1.7371,1.7372,1.7378,1.7412,1.7412,1.7377,1.7378,1.7379,1.7379,0,0,0,0,0,0,0,1.7343,1.7346,1.7383,1.7367,1.7365,1.7357,1.7358,1.738,1.7374,1.7361,1.7359,1.7361,1.737,1.7376,1.7378,1.7413,1.7377,1.7379,1.738,1.738,1.7478,1.7479,0,0,0,0,0,0,1.7343,1.7345,1.7382,1.7383,1.735,1.7359,1.736,1.7371,1.7374,1.7373,1.7362,1.7359,1.7374,1.7376,1.7378,1.7423,1.7379,1.7381,1.7382,1.7476,1.7478,1.748,0,0,0,0,0,0,1.7343,1.7347,1.7382,1.7364,1.7367,1.7362,1.7374,1.7372,1.7378,1.7374,1.7373,1.7369,1.7372,1.7375,1.7403,1.7423,1.7381,1.7383,1.7474,1.7477,1.7479,1.7515,0,0,0,0,0,0,1.7341,1.7347,1.7363,1.7364,1.7369,1.7407,1.7375,1.7373,1.7381,1.7378,1.7381,1.738,1.7372,1.74,1.7404,1.7425,1.7384,1.7472,1.7475,1.7478,1.7512,1.7518,1.7523,0,0,0,0,0,1.7339,1.7373,1.7364,1.7368,1.7388,1.7408,1.7411,1.74,1.7383,1.7398,1.7395,1.738,1.7421,1.7403,1.7408,1.7429,1.7471,1.7475,1.7478,1.7509,1.7517,1.7523,0,0,0,0,0,0,1.7374,1.7373,1.7363,1.7398,1.7403,1.7403,1.7422,1.7409,1.742,1.7416,1.7403,1.7404,1.7433,1.7434,1.7415,1.7467,1.7443,1.7447,1.7465,1.7472,1.7478,1.7476,1.7386,0,0,0,0,0,1.7386,1.7403,1.7401,1.7432,1.7435,1.7428,1.7436,1.7428,1.7433,1.7435,1.7435,1.744,1.7454,1.7463,1.7476,1.7512,1.7511,1.7529,1.7535,1.754,1.7543,1.756,1.7567,1.7491,1.7491,1.7491,0,0,1.741,1.7412,1.7423,1.7438,1.7442,1.7458,1.743,1.745,1.7462,1.7438,1.7463,1.7463,1.7468,1.75,1.7513,1.7501,1.7564,1.7544,1.7548,1.7549,1.7564,1.7571,1.7578,1.7493,1.7492,1.7492,0,0,1.7463,1.7466,1.7491,1.7495,1.75,1.7495,1.7501,1.7503,1.7501,1.7526,1.7508,1.7522,1.7547,1.7551,1.7556,1.7608,1.7593,1.7613,1.7642,1.7659,1.7665,1.767,1.7687,1.7693,1.7616,1.7616,1.7617,0,1.7492,1.7517,1.7506,1.7526,1.7532,1.7512,1.7536,1.754,1.7549,1.7554,1.754,1.7569,1.7571,1.7602,1.7614,1.762,1.7625,1.7611,1.7665,1.767,1.7675,1.7691,1.7697,1.7619,1.7618,1.7618,1.7618,0,1.7552,1.7569,1.7589,1.7597,1.7606,1.7629,1.762,1.763,1.762,1.7616,1.7641,1.7643,1.7654,1.7661,1.7653,1.769,1.7682,1.7667,1.7643,1.7685,1.7699,1.7705,1.7622,1.7621,1.762,1.762,0,0,1.7627,1.7628,1.7635,1.7637,1.7641,1.7654,1.7674,1.7685,1.7693,1.77,1.7716,1.7737,1.7722,1.7728,1.7719,1.7734,1.7773,1.7717,1.7717,1.7726,1.7812,1.7822,1.7829,1.7764,1.7765,1.7766,1.7811,0,1.7677,1.7712,1.7702,1.7737,1.7751,1.7731,1.7749,1.7752,1.7749,1.7761,1.7757,1.7771,1.7752,1.7755,1.7769,1.7765,1.779,1.7762,1.7777,1.7778,1.7775,1.7837,1.7848,1.7891,1.7817,1.7818,1.7818,0,1.774,1.7748,1.7784,1.7783,1.7789,1.7805,1.7813,1.7825,1.7828,1.7825,1.783,1.7818,1.7837,1.7814,1.7839,1.782,1.7826,1.7825,1.7826,1.7826,1.7799,1.7837,1.7904,1.791,1.7827,1.7827,1.7826,0,1.7788,1.7809,1.7832,1.7835,1.7835,1.7846,1.7847,1.7849,1.7855,1.7863,1.7866,1.7876,1.7881,1.7888,1.7879,1.7863,1.7905,1.7881,1.7901,1.7901,1.791,1.7909,1.7977,1.7917,1.7916,1.7916,1.7916,0,1.7844,1.7867,1.7853,1.7868,1.7892,1.7879,1.7903,1.7901,1.7903,1.7916,1.79,1.7912,1.79,1.7911,1.7904,1.7924,1.7927,1.7924,1.7922,1.7925,1.7925,1.7927,1.7923,1.7918,1.7918,1.7917,1.7917,0,1.7902,1.7894,1.7918,1.7915,1.7915,1.7933,1.793,1.7943,1.7938,1.7955,1.7958,1.795,1.7962,1.7954,1.7967,1.7961,1.7988,1.7983,1.7987,1.7985,1.8005,1.8002,1.8075,1.8083,1.8019,1.802,1.802,0,1.7937,1.7954,1.7953,1.796,1.7961,1.7973,1.7979,1.7968,1.7975,1.7978,1.799,1.8001,1.8008,1.8029,1.8024,1.8033,1.8026,1.8051,1.8027,1.8029,1.8024,1.8022,1.8023,1.8056,1.8056,1.8057,1.8057,0,1.8,1.7995,1.8005,1.8012,1.802,1.8025,1.803,1.8037,1.8024,1.8033,1.8045,1.8051,1.8062,1.8073,1.808,1.808,1.8066,1.8065,1.807,1.8072,1.8073,1.8071,1.7998,1.8063,1.8063,1.8062,1.8062,1.8062,1.8046,1.8059,1.8059,1.807,1.8072,1.8076,1.8087,1.8083,1.8092,1.81,1.8093,1.8107,1.8108,1.8116,1.8117,1.8127,1.8117,1.8125,1.8126,1.8128,1.8129,1.8073,1.8129,1.8129,1.8129,1.8128,1.8128,0,1.8107,1.8105,1.8115,1.8121,1.8129,1.8115,1.8119,1.8126,1.8138,1.8141,1.8148,1.8161,1.817,1.8166,1.8174,1.8183,1.8176,1.8185,1.8183,1.8183,1.8139,1.8133,1.8189,1.8189,1.8189,1.8189,1.8189,1.8189,1.8139,1.8159,1.8153,1.8174,1.8172,1.8185,1.8188,1.8191,1.8192,1.8207,1.8214,1.8211,1.821,1.8218,1.8226,1.8224,1.8227,1.8237,1.8234,1.8192,1.8186,1.8181,1.8175,1.8239,1.8239,1.8276,1.8276,1.8277]}]]